sat.trackr.live / text

‹ back to catalog

STARLINK-3615

NORAD 51778 · 2022-017L

PAYLOAD ACTIVE UNKNOWN

§ Identity

Operator
Country
US
Launch date
2022-02-25
Launch site
AFWTR
Launch vehicle
Mass (kg)
RCS (m²)

Purposes: comms

External: N2YO · Heavens-Above · Gunter

§ Orbital elements

Epoch: 2026-09-20T00:44:27.487680Z

Period
93.85 min
Inclination
53.1603°
Eccentricity
0.0001330
Mean motion
15.34390058 rev/d
Perigee alt
461.8 km
Apogee alt
463.6 km
Semi-major
6,840.9 km
B*
1.5633e-5
RAAN
165.5648°
Arg perigee
109.3406°
Mean anomaly
250.7741°
Rev number
25,204

§ Raw data

STARLINK-36151 51778U 22017L   26263.03087370  .00000152  00000+0  15633-4 0  99962 51778  53.1603 165.5648 0001330 109.3406 250.7741 15.34390058252040

JSON: /api/v1/satellites/51778 · /tle

For live sub-satellite position, see the globe view (requires WebGL).

§ Visibility from observer

Set your observer location to see the next 7 days of passes ≥ 10°. The values pass through the URL so the page stays shareable.

No JS? Fill the form by hand. The geolocation button needs JavaScript.